User: anonymous   Login
Location: Antin
(43.3330°N, 0.2804°E)
Time: 06:20:31
(UTC+00:00)
Language:

SME Rocket - Orbit

View from above orbital plane
View from above orbital plane
View from above satellite
View from above satellite

Ground track
Ground track

The orbit data is extracted from the following two-line orbital elements,

1 12889U 81100C   22021.46474286  .00000166  00000-0  10524-3 0  9994
2 12889  99.8729 174.0489 1315850 268.9615 104.8809 12.18112731785442
Epoch (UTC): 21 January 2022 11:09:13
Eccentricity: 0.1315850
inclination: 99.8729°
perigee height: 551 km
apogee height: 2650 km
right ascension of ascending node: 174.0489°
argument of perigee: 268.9615°
revolutions per day: 12.18112731
mean anomaly at epoch: 104.8809°
orbit number at epoch: 78544

The dashed part of the orbit path shows where the satellite is in the earth's shadow,  

DLR